Simultaneous Nadir Overpasses (SNOs) Predictions

Prediction of SNOs between NOAA-19 and TERRA Satellite Orbit:

Table of predicted SNOs for the next 14.0 days since TLE Epoch: 12/17/2022
Index Date (NOAA-19) Time (NOAA-19) Lat,Lon (NOAA-19) SZA (NOAA-19 ) Date (TERRA) Time (TERRA) Lat,Lon (TERRA) SZA (TERRA ) Distance(km) Time Diff (sec)
1 12/17/2022 19:35:25 80.91, -78.57 105.91 12/17/2022 19:36:25 80.92, -78.44 105.94 2.18 60
2 12/17/2022 20:26:28 -80.91, 89.14 74.06 12/17/2022 20:25:48 -80.92, 89.27 74.05 2.58 40
3 12/19/2022 23:26:15 -80.91, 43.96 74.05 12/19/2022 23:27:22 -80.92, 43.86 74.03 1.86 67
4 12/20/2022 00:17:10 80.91,-148.78 105.96 12/20/2022 00:16:45 80.91,-148.66 105.95 2.25 25
5 12/22/2022 04:08:01 -80.91, -26.56 74.07 12/22/2022 04:07:42 -80.90, -26.45 74.07 2.32 19
6 12/24/2022 07:58:41 80.91, 95.97 105.91 12/24/2022 07:58:38 80.90, 95.79 105.88 3.26 3
7 12/26/2022 11:49:32 -80.91,-141.75 74.18 12/26/2022 11:49:34 -80.91,-141.85 74.19 1.72 2
8 12/28/2022 15:40:12 80.91, -19.42 105.71 12/28/2022 15:40:29 80.93, -19.43 105.72 1.27 17
9 12/30/2022 19:31:03 -80.91, 102.84 74.45 12/30/2022 19:31:25 -80.92, 102.73 74.45 1.91 22



Historial Predications of SNOs between NOAA-19 and TERRA
